JAL15 KLAX-RJTT

Flight info

Callsign JAL15
Flight time N/A
Altitude 34000
Route SUMMR2 SCTRR DCT PYE DCT AMAKR DCT LINUZ DCT NATTE DCT 45N130W 49N140W 52N150W 55N160W/N0494F360 DCT CDB A342 OPAKE DCT HUMSA/N0499F380 M523 IPGUD Y800 ESNIP Y810 AKRIT Y807 POLIX
Aircraft A35K/H-SDE2E3GHIJ3J4J5LM1ORWXY/LB1D1

Departure

Time 2026-04-23 22:12
Airport Los Angeles International Airport (KLAX)

Arrival

Time N/A
Airport Tokyo Haneda International Airport (RJTT)
Time Latitude Longitude Altitude Speed Heading
2026-04-23 21:50 33.94089 -118.40927 131 ft 0 kts 264°
2026-04-23 21:59 33.94089 -118.40926 131 ft 1 kts 264°
2026-04-23 21:59 33.94092 -118.40899 131 ft 4 kts 263°
2026-04-23 21:59 33.94096 -118.40868 131 ft 4 kts 248°
2026-04-23 22:00 33.94125 -118.40838 131 ft 0 kts 172°
2026-04-23 22:05 33.94124 -118.40838 131 ft 1 kts 172°
2026-04-23 22:05 33.94110 -118.40836 132 ft 0 kts 172°
2026-04-23 22:06 33.94092 -118.40833 123 ft 5 kts 172°
2026-04-23 22:06 33.94044 -118.40825 129 ft 9 kts 173°
2026-04-23 22:06 33.93974 -118.40815 129 ft 11 kts 173°
2026-04-23 22:06 33.93899 -118.40796 129 ft 12 kts 155°
2026-04-23 22:07 33.93838 -118.40732 126 ft 12 kts 153°
2026-04-23 22:07 33.93811 -118.40657 121 ft 10 kts 82°
2026-04-23 22:07 33.93821 -118.40558 124 ft 15 kts 83°
2026-04-23 22:07 33.93836 -118.40413 128 ft 20 kts 83°
2026-04-23 22:08 33.93856 -118.40222 128 ft 25 kts 82°
2026-04-23 22:08 33.93879 -118.39998 131 ft 28 kts 83°
2026-04-23 22:08 33.93903 -118.39763 127 ft 28 kts 83°
2026-04-23 22:08 33.93928 -118.39523 128 ft 29 kts 83°
2026-04-23 22:09 33.93952 -118.39285 127 ft 29 kts 83°
2026-04-23 22:09 33.93977 -118.39041 129 ft 30 kts 83°
2026-04-23 22:09 33.94002 -118.38794 126 ft 30 kts 83°
2026-04-23 22:09 33.94028 -118.38543 122 ft 30 kts 83°
2026-04-23 22:10 33.94054 -118.38289 121 ft 31 kts 83°
2026-04-23 22:10 33.94072 -118.38105 131 ft 10 kts 83°
2026-04-23 22:10 33.94078 -118.38033 131 ft 8 kts 91°
2026-04-23 22:10 33.94049 -118.38006 129 ft 6 kts 167°
2026-04-23 22:11 33.94007 -118.38004 125 ft 6 kts 183°
2026-04-23 22:11 33.93983 -118.38037 123 ft 5 kts 255°
2026-04-23 22:11 33.93978 -118.38084 131 ft 7 kts 263°
2026-04-23 22:11 33.93957 -118.38280 131 ft 50 kts 263°
2026-04-23 22:12 33.93888 -118.38955 129 ft 111 kts 263°
2026-04-23 22:12 33.93769 -118.40099 132 ft 163 kts 263°
2026-04-23 22:12 33.93610 -118.41556 564 ft 174 kts 263°
2026-04-23 22:12 33.93443 -118.42923 1481 ft 163 kts 260°
2026-04-23 22:13 33.93260 -118.44326 1946 ft 174 kts 261°
2026-04-23 22:13 33.93101 -118.45807 2203 ft 187 kts 263°
2026-04-23 22:13 33.92974 -118.47442 2367 ft 207 kts 265°
2026-04-23 22:13 33.92869 -118.49252 2536 ft 226 kts 266°
2026-04-23 22:14 33.92772 -118.51248 2653 ft 251 kts 267°
2026-04-23 22:14 33.92649 -118.53417 2924 ft 266 kts 265°
2026-04-23 22:14 33.92456 -118.55653 3390 ft 270 kts 264°
2026-04-23 22:14 33.92228 -118.57915 3809 ft 273 kts 263°
2026-04-23 22:15 33.91996 -118.60184 4197 ft 275 kts 264°
2026-04-23 22:15 33.91781 -118.62470 4326 ft 274 kts 264°
2026-04-23 22:15 33.91587 -118.64759 4292 ft 277 kts 265°
2026-04-23 22:15 33.91500 -118.67095 4540 ft 281 kts 272°
2026-04-23 22:16 33.91578 -118.69443 5215 ft 280 kts 274°
2026-04-23 22:16 33.91645 -118.71780 5910 ft 278 kts 273°
2026-04-23 22:16 33.91680 -118.74113 6506 ft 280 kts 273°
2026-04-23 22:16 33.91700 -118.76455 7148 ft 278 kts 272°
2026-04-23 22:17 33.91704 -118.78757 7882 ft 273 kts 272°
2026-04-23 22:17 33.91702 -118.81041 8573 ft 271 kts 271°
2026-04-23 22:17 33.91697 -118.83322 9157 ft 274 kts 271°
2026-04-23 22:17 33.91728 -118.85623 9774 ft 275 kts 273°
2026-04-23 22:18 33.91806 -118.87931 10312 ft 279 kts 273°
2026-04-23 22:18 33.91890 -118.90317 10570 ft 293 kts 273°
2026-04-23 22:18 33.91974 -118.92825 10822 ft 306 kts 273°
2026-04-23 22:18 33.92055 -118.95436 11064 ft 319 kts 273°
2026-04-23 22:19 33.92137 -118.98160 11313 ft 331 kts 273°
2026-04-23 22:19 33.92360 -119.00959 11540 ft 342 kts 282°
2026-04-23 22:19 33.93242 -119.03648 11834 ft 350 kts 298°
2026-04-23 22:19 33.94503 -119.06173 12317 ft 353 kts 301°
2026-04-23 22:20 33.95818 -119.08675 12886 ft 354 kts 301°
2026-04-23 22:20 33.97134 -119.11183 13394 ft 355 kts 300°
2026-04-23 22:20 33.98425 -119.13662 13913 ft 356 kts 300°
2026-04-23 22:20 33.99747 -119.16199 14335 ft 358 kts 301°
2026-04-23 22:21 34.01277 -119.18589 14734 ft 364 kts 311°
2026-04-23 22:21 34.03210 -119.20584 15138 ft 370 kts 320°
2026-04-23 22:21 34.05300 -119.22388 15421 ft 377 kts 321°
2026-04-23 22:21 34.07473 -119.24229 15897 ft 377 kts 321°
2026-04-23 22:22 34.09588 -119.26028 16407 ft 376 kts 321°
2026-04-23 22:22 34.11727 -119.27858 16885 ft 377 kts 320°
2026-04-23 22:22 34.13874 -119.29702 17291 ft 380 kts 320°
2026-04-23 22:22 34.16036 -119.31563 17692 ft 383 kts 320°
2026-04-23 22:23 34.18208 -119.33434 18109 ft 385 kts 320°
2026-04-23 22:23 34.20397 -119.35321 18482 ft 387 kts 320°
2026-04-23 22:23 34.22628 -119.37248 18792 ft 392 kts 320°
2026-04-23 22:23 34.24830 -119.39150 19104 ft 395 kts 320°
2026-04-23 22:24 34.27066 -119.41080 19441 ft 397 kts 320°
2026-04-23 22:24 34.29321 -119.43029 19787 ft 399 kts 320°
2026-04-23 22:24 34.31581 -119.44984 20137 ft 401 kts 320°
2026-04-23 22:24 34.33859 -119.46956 20479 ft 403 kts 320°
2026-04-23 22:25 34.36147 -119.48939 20821 ft 405 kts 320°
2026-04-23 22:25 34.38443 -119.50930 21172 ft 407 kts 320°
2026-04-23 22:25 34.40751 -119.52933 21538 ft 410 kts 320°
2026-04-23 22:25 34.43056 -119.54987 21864 ft 411 kts 318°
2026-04-23 22:26 34.45311 -119.57122 22204 ft 413 kts 318°
2026-04-23 22:26 34.47576 -119.59282 22554 ft 416 kts 318°
2026-04-23 22:26 34.49860 -119.61455 22887 ft 418 kts 318°
2026-04-23 22:26 34.52161 -119.63635 23258 ft 420 kts 318°
2026-04-23 22:27 34.54473 -119.65822 23640 ft 421 kts 318°